Location: Unspecified
(0.0000°N, 0.0000°E)
Time: 21:35:41
(UTC+01:00)

Cosmos 2237 Rocket - Visible Passes

Search period start: 27 February 2017 00:00
Search period end: 09 March 2017 00:00
Orbit: 834 x 851 km, 71.0° (Epoch: 27 February)

Date Brightness Start Highest point End Pass type
(mag) Time Alt. Az. Time Alt. Az. Time Alt. Az.
03 Mar 4.2 20:57:25 10° N 20:58:15 14° N 20:58:15 14° N visible
04 Mar 3.0 20:42:38 10° N 20:46:05 34° NNE 20:46:05 34° NNE visible
05 Mar 2.4 20:27:51 10° N 20:33:14 44° ENE 20:34:56 35° ESE visible
05 Mar 5.0 22:14:53 10° W 22:17:00 12° WSW 22:17:03 12° WSW visible
06 Mar 2.5 20:13:06 10° N 20:18:23 41° ENE 20:23:41 10° SE visible
06 Mar 5.0 21:59:38 10° W 22:02:10 13° WSW 22:04:42 10° SW visible
07 Mar 2.6 19:58:20 10° N 20:03:33 39° ENE 20:08:46 10° SE visible
07 Mar 5.0 21:44:28 10° WNW 21:47:20 14° WSW 21:50:12 10° SW visible
08 Mar 2.7 19:43:34 10° N 19:48:43 36° ENE 19:53:51 10° SE visible
08 Mar 4.9 21:29:20 10° WNW 21:32:29 15° WSW 21:35:39 10° SW visible
